Wind_Speed
28 30 29 31 27 26 25 27 33 29 26 24 24 24 23 21 18 18 17 14 13 10 9 7 5 3 1 3 5 7 9 12 15 17 18 20 21 21 22 23 24 25 25
33 29 29 29 28 34 29 25 30 30 29 28 26 23 23 20 20 20 18 15 13 11 9 7 4 2 3 3 6 9 11 14 16 18 20 20 21 21 22 22 24 25 27
35 33 32 31 31 31 28 27 31 31 30 29 26 24 23 22 23 21 18 17 14 13 10 7 5 2 1 3 6 9 12 15 17 19 20 20 22 23 23 22 23 26 29
30 34 34 32 31 29 28 29 31 31 30 29 26 25 23 23 24 22 20 18 16 14 11 8 5 2 2 3 6 9 12 15 17 20 21 21 21 22 22 22 22 27 30
31 35 36 36 34 31 31 32 32 31 30 29 27 26 25 25 25 23 21 19 18 14 11 8 5 3 1 2 5 9 12 16 20 22 22 22 21 22 23 23 24 29 32
27 35 42 41 36 34 34 35 34 32 33 33 29 28 28 28 27 24 23 21 18 16 13 10 6 4 3 4 8 10 13 16 21 24 25 24 23 22 22 22 26 31 32
31 37 43 45 41 38 37 38 36 35 35 32 30 29 30 29 28 25 24 23 21 17 14 12 9 7 7 8 10 11 14 19 22 24 27 25 23 23 23 24 26 31 33
38 25 42 52 48 45 42 40 37 35 35 30 33 33 32 29 28 27 27 25 22 20 17 14 13 11 10 11 14 15 18 20 24 27 29 28 29 27 26 27 29 33 34
37 27 37 48 46 46 43 41 40 36 37 36 34 31 31 31 31 29 27 27 25 23 20 18 16 15 15 16 19 19 20 23 26 27 30 29 30 31 28 29 30 33 34
34 44 27 35 43 47 48 44 41 39 37 40 39 35 34 31 31 31 29 28 28 25 24 21 20 20 20 20 22 23 24 25 28 29 30 32 31 33 32 33 32 38 36
32 31 37 33 37 50 51 48 42 42 39 44 45 39 37 33 33 33 33 30 29 27 26 24 24 23 23 24 24 27 28 29 30 31 31 33 33 35 35 35 34 38 36
35 31 41 25 35 37 48 48 48 50 50 48 47 41 36 32 35 36 36 34 32 30 29 27 28 27 27 28 27 28 30 31 31 32 33 34 38 40 36 34 37 36 35
36 29 29 38 30 27 24 52 52 59 51 51 47 40 40 35 35 36 37 37 34 32 31 30 29 29 30 31 30 30 31 32 33 34 36 37 43 43 40 37 35 35 31
34 31 34 32 34 30 32 26 48 56 58 52 47 43 40 37 32 39 39 38 35 36 34 32 32 31 31 30 30 31 31 33 33 35 37 40 45 47 42 35 36 38 34
27 34 35 34 32 31 29 25 40 49 57 59 46 45 38 35 38 38 39 37 38 36 36 34 33 33 31 31 31 32 32 33 34 35 36 43 46 38 36 36 38 41 37
37 33 38 36 35 32 29 29 28 31 34 52 55 59 42 44 40 38 39 39 38 37 36 36 34 33 31 32 33 33 32 33 35 34 35 41 40 38 35 36 38 38 37
35 35 38 38 38 35 32 32 34 33 35 42 47 47 46 45 40 40 42 40 38 37 35 36 35 34 34 34 33 32 33 34 36 37 41 36 37 35 34 38 38 38 37
46 37 36 42 36 40 35 34 36 30 37 42 42 41 45 47 44 42 41 39 37 36 35 37 36 36 35 36 33 31 32 34 38 39 39 40 41 37 42 40 39 40 39
48 41 41 44 41 40 37 37 35 40 39 44 44 45 46 46 44 42 40 38 38 38 39 37 37 35 35 35 33 32 33 35 37 42 44 42 41 41 42 42 42 41 40
52 50 47 37 48 43 43 40 39 40 40 44 51 51 47 47 46 43 43 41 42 42 41 39 38 37 36 34 34 34 35 37 38 43 47 45 46 45 43 45 46 45 45
59 56 53 49 41 52 47 43 43 42 42 47 51 54 53 50 48 47 45 44 44 44 43 42 41 40 39 37 40 40 41 42 43 46 50 51 52 48 44 45 45 46 45
59 60 61 56 50 54 57 53 48 44 42 45 49 48 54 45 48 50 49 47 45 46 45 45 45 44 42 42 43 46 44 47 48 50 50 50 47 48 50 50 53 51 47
60 71 66 59 54 57 55 52 53 54 50 47 47 47 48 49 47 50 51 51 48 48 48 47 47 45 45 45 49 49 53 59 54 52 53 50 47 50 52 53 52 49 47
63 67 64 61 62 53 59 57 55 54 54 53 49 48 47 47 47 49 51 53 53 52 51 48 47 46 47 48 53 55 59 59 56 55 58 53 47 49 50 54 55 49 42
67 67 64 60 72 56 59 62 63 62 60 57 53 49 47 47 46 46 51 54 54 54 52 51 49 51 52 54 58 61 62 64 59 57 55 53 46 46 51 52 49 45 42
66 76 77 44 70 67 62 64 59 58 59 58 54 49 47 46 47 50 49 51 52 51 52 53 54 55 56 58 64 65 55 49 46 43 44 48 51 50 53 51 46 43 42
Wind_Direction
206 199 196 195 196 198 210 213 205 201 193 195 185 181 187 189 188 182 181 181 178 186 197 199 205 213 296 339 358 7 4 3 6 1 351 343 341 337 333 340 347 348 351
201 194 200 201 206 211 215 211 199 201 196 194 190 187 189 190 188 185 185 184 185 190 190 186 180 142 82 45 31 20 13 6 1 356 354 350 344 339 337 346 351 348 350
202 202 201 207 211 212 208 204 205 196 199 196 193 194 191 191 191 188 186 186 189 184 184 180 168 142 69 29 17 8 5 359 355 348 341 338 344 341 340 348 353 349 348
216 208 204 205 208 210 202 199 202 202 198 198 197 198 195 195 193 191 190 189 188 186 183 181 182 163 68 29 22 15 11 2 357 354 344 339 341 342 342 345 348 345 346
222 223 210 206 206 206 204 199 203 202 199 201 204 200 199 199 197 194 193 191 192 191 188 185 184 184 160 7 358 350 355 357 360 353 348 346 342 340 343 341 337 338 342
219 218 216 209 206 209 208 207 205 206 202 202 206 203 202 199 199 199 196 195 196 195 193 194 194 198 243 303 330 337 343 346 347 351 351 347 345 342 343 341 335 333 341
224 228 218 216 211 209 210 212 210 209 208 204 209 208 206 202 201 201 202 199 200 200 202 208 217 235 256 288 309 326 337 342 342 345 347 344 340 344 343 340 337 337 339
226 232 222 218 213 206 210 214 214 214 213 217 210 205 202 202 203 205 204 203 206 207 213 221 234 251 273 293 302 313 325 329 330 334 339 344 341 329 331 331 330 334 339
250 234 221 220 221 209 211 216 218 214 217 218 212 208 205 204 204 208 214 206 207 215 221 231 247 264 278 291 300 310 319 322 325 327 333 340 342 341 331 335 333 334 336
247 243 239 213 209 209 208 213 218 217 222 224 221 212 210 208 206 211 216 219 214 219 228 236 250 263 274 284 294 305 311 316 319 324 327 332 333 335 333 331 331 334 333
242 249 247 224 218 217 215 211 216 218 218 226 221 216 212 210 211 213 216 220 225 226 233 243 252 261 272 282 292 301 306 310 314 319 320 328 331 329 327 327 328 330 330
234 236 247 242 227 218 219 213 212 218 216 227 223 214 213 213 215 217 220 222 224 230 235 243 255 265 274 282 290 297 303 307 311 312 315 320 330 327 324 324 325 331 331
228 233 235 242 250 236 243 220 216 221 220 226 220 210 213 215 219 223 224 227 228 232 238 244 252 263 274 283 291 296 301 304 307 308 311 312 321 322 320 319 325 333 334
228 230 236 232 240 238 234 239 224 222 220 223 228 215 214 218 217 230 227 230 233 237 240 247 254 260 268 279 287 291 296 299 302 304 309 312 320 317 315 318 324 329 330
231 236 237 240 232 240 245 246 226 224 224 229 217 219 215 219 225 231 230 231 234 239 246 249 256 265 274 280 284 287 291 295 299 304 309 316 318 316 315 316 317 326 325
227 237 236 238 241 232 236 242 235 234 241 231 221 224 212 222 230 231 233 233 236 241 247 254 259 266 272 277 281 286 289 293 297 301 304 310 311 308 311 316 317 321 324
224 233 236 233 236 234 230 233 232 239 236 228 226 223 221 228 231 232 233 236 239 243 245 253 261 269 274 276 279 283 288 291 296 297 299 305 308 307 309 316 319 327 329
226 231 236 229 235 233 229 235 234 234 230 220 227 227 229 230 232 232 233 239 241 244 248 256 263 267 272 274 277 280 284 287 294 299 301 306 305 305 307 308 311 320 328
226 225 235 229 227 234 232 231 240 241 235 227 231 236 236 238 240 239 237 238 241 247 253 258 263 267 268 271 275 281 283 285 296 303 303 304 303 301 304 305 308 315 324
226 227 230 236 225 228 229 227 232 239 239 232 229 235 240 242 244 244 243 240 242 248 256 261 265 268 269 271 274 276 282 284 290 293 299 299 301 301 299 300 305 308 315
222 227 229 235 236 229 231 225 226 233 236 234 235 237 243 244 243 245 246 247 248 252 257 263 269 271 271 273 274 276 283 286 288 288 294 302 304 297 294 301 302 306 310
222 224 226 229 233 232 232 235 232 232 237 237 241 244 239 241 243 245 248 250 252 254 257 263 267 271 273 273 275 273 279 286 285 285 288 297 298 296 295 301 304 302 306
229 225 228 229 231 235 231 232 234 235 234 235 238 243 244 247 246 246 246 249 252 255 257 261 265 269 272 274 275 280 280 289 286 284 285 290 293 296 292 296 301 303 301
231 231 229 229 227 234 234 236 236 240 239 237 236 236 241 244 245 244 245 247 250 253 258 261 264 270 272 274 276 276 282 287 284 285 287 282 287 291 292 294 297 300 300
236 234 229 244 237 226 233 232 239 236 240 240 240 239 238 242 241 240 242 246 251 254 258 262 264 267 269 271 276 279 284 288 286 285 282 280 279 280 289 294 295 296 297
243 239 228 240 234 232 234 238 241 240 238 238 238 240 241 238 241 244 247 250 252 257 260 262 266 269 275 279 281 282 284 285 281 284 280 276 278 280 286 289 288 292 297
Height
5809 5812 5816 5820 5823 5827 5829 5832 5836 5841 5845 5846 5849 5853 5857 5860 5863 5866 5868 5869 5870 5871 5871 5871 5871 5872 5872 5871 5870 5868 5867 5866 5864 5862 5860 5859 5856 5853 5850 5846 5843 5841 5838
5805 5809 5813 5816 5821 5825 5826 5828 5833 5839 5843 5845 5848 5852 5856 5859 5862 5865 5866 5868 5869 5870 5871 5871 5871 5871 5871 5870 5869 5868 5867 5865 5862 5861 5859 5857 5854 5850 5847 5844 5841 5839 5836
5800 5805 5809 5813 5817 5820 5822 5825 5830 5836 5840 5843 5847 5851 5854 5857 5861 5863 5865 5866 5868 5869 5870 5870 5870 5871 5870 5869 5868 5867 5865 5863 5861 5859 5857 5855 5852 5848 5845 5842 5839 5837 5833
5796 5801 5803 5807 5812 5816 5819 5823 5828 5834 5838 5841 5845 5849 5853 5856 5859 5861 5863 5864 5866 5867 5868 5869 5869 5870 5870 5869 5867 5866 5864 5862 5860 5858 5855 5852 5849 5845 5842 5839 5837 5834 5831
5794 5796 5798 5802 5808 5813 5817 5821 5825 5831 5836 5838 5843 5847 5851 5855 5858 5859 5861 5863 5864 5866 5867 5867 5867 5868 5868 5867 5866 5865 5863 5861 5859 5857 5854 5850 5846 5843 5840 5837 5835 5832 5828
5785 5791 5794 5796 5803 5808 5814 5818 5822 5827 5832 5834 5839 5844 5848 5851 5855 5857 5859 5861 5862 5864 5864 5865 5865 5866 5866 5866 5865 5863 5862 5860 5857 5854 5851 5848 5844 5841 5837 5834 5832 5828 5823
5782 5785 5788 5792 5797 5804 5810 5815 5817 5822 5827 5831 5835 5841 5845 5849 5852 5855 5857 5858 5860 5861 5862 5863 5864 5864 5864 5863 5862 5861 5859 5857 5855 5852 5849 5846 5842 5839 5835 5832 5828 5824 5820
5773 5777 5782 5786 5791 5796 5803 5808 5812 5818 5823 5826 5832 5836 5841 5845 5848 5851 5854 5856 5857 5859 5860 5861 5861 5862 5862 5861 5859 5858 5857 5856 5853 5850 5847 5843 5840 5836 5832 5829 5825 5821 5816
5771 5775 5776 5781 5786 5791 5796 5802 5807 5813 5818 5823 5826 5833 5837 5840 5843 5847 5849 5852 5854 5855 5857 5859 5859 5859 5859 5858 5857 5855 5854 5852 5850 5847 5844 5841 5837 5833 5829 5825 5821 5817 5812
5769 5771 5774 5775 5782 5786 5790 5796 5801 5808 5811 5817 5821 5827 5832 5836 5839 5843 5845 5847 5850 5852 5854 5855 5856 5856 5856 5855 5854 5852 5850 5849 5846 5844 5841 5837 5834 5830 5825 5821 5817 5813 5807
5762 5765 5769 5773 5777 5781 5783 5789 5795 5801 5806 5809 5815 5820 5826 5829 5834 5838 5841 5843 5845 5848 5850 5851 5852 5852 5852 5851 5849 5847 5846 5845 5843 5840 5837 5833 5829 5826 5821 5817 5812 5808 5802
5754 5759 5764 5769 5771 5774 5779 5785 5789 5793 5798 5803 5806 5814 5820 5825 5827 5831 5836 5839 5841 5842 5845 5846 5846 5846 5846 5846 5845 5844 5842 5840 5838 5834 5831 5828 5825 5821 5816 5812 5807 5802 5797
5747 5752 5756 5762 5766 5767 5770 5777 5782 5785 5791 5798 5800 5806 5810 5816 5821 5826 5830 5832 5836 5838 5839 5841 5842 5841 5841 5840 5839 5838 5837 5834 5832 5829 5826 5823 5819 5815 5811 5806 5802 5797 5792
5742 5743 5748 5754 5760 5762 5766 5769 5775 5779 5785 5790 5793 5798 5803 5808 5814 5819 5822 5826 5829 5831 5833 5835 5835 5837 5838 5837 5836 5834 5833 5830 5827 5824 5820 5817 5813 5809 5805 5801 5796 5792 5787
5732 5735 5741 5745 5751 5755 5759 5762 5766 5771 5776 5780 5785 5791 5796 5801 5807 5811 5814 5819 5821 5824 5826 5828 5829 5829 5829 5829 5828 5828 5826 5824 5821 5818 5815 5810 5807 5803 5799 5795 5791 5787 5782
5722 5725 5732 5738 5742 5747 5752 5756 5759 5763 5767 5771 5774 5781 5788 5796 5800 5803 5806 5810 5814 5816 5819 5820 5821 5822 5823 5822 5821 5820 5819 5818 5815 5813 5810 5806 5802 5797 5793 5789 5786 5781 5776
5713 5718 5724 5730 5734 5738 5744 5748 5753 5757 5762 5765 5770 5774 5783 5787 5791 5796 5798 5802 5806 5809 5811 5812 5814 5814 5814 5815 5815 5814 5812 5810 5808 5806 5802 5800 5796 5791 5788 5783 5779 5774 5770
5706 5712 5715 5722 5726 5730 5736 5740 5744 5748 5753 5757 5765 5767 5774 5778 5782 5787 5791 5795 5798 5801 5803 5804 5806 5806 5806 5806 5806 5807 5806 5803 5799 5797 5795 5793 5789 5785 5782 5775 5771 5767 5763
5697 5703 5707 5711 5717 5721 5727 5733 5736 5740 5745 5750 5755 5760 5765 5770 5775 5780 5784 5788 5790 5791 5794 5796 5797 5798 5799 5798 5798 5798 5796 5794 5791 5789 5786 5784 5780 5777 5774 5768 5763 5759 5755
5686 5693 5700 5702 5708 5714 5719 5724 5728 5732 5737 5741 5746 5751 5756 5760 5766 5771 5775 5779 5781 5782 5784 5786 5788 5789 5789 5790 5790 5789 5787 5785 5784 5780 5778 5775 5771 5767 5764 5760 5755 5751 5748
5673 5682 5688 5693 5697 5703 5708 5714 5717 5721 5727 5731 5736 5743 5749 5753 5756 5760 5762 5768 5771 5772 5774 5776 5778 5779 5780 5781 5780 5778 5777 5775 5774 5772 5768 5765 5761 5758 5754 5751 5745 5742 5739
5660 5667 5674 5679 5683 5689 5696 5702 5708 5712 5716 5721 5726 5731 5736 5741 5743 5748 5752 5756 5761 5763 5764 5765 5766 5767 5769 5769 5769 5767 5766 5765 5764 5760 5758 5757 5751 5747 5744 5741 5737 5734 5731
5646 5652 5660 5664 5672 5677 5684 5690 5696 5700 5706 5711 5715 5719 5723 5729 5733 5736 5740 5743 5748 5750 5753 5753 5754 5756 5757 5757 5756 5756 5754 5752 5751 5749 5746 5745 5740 5737 5734 5732 5728 5725 5722
5631 5639 5644 5653 5658 5662 5674 5678 5682 5687 5691 5698 5703 5706 5710 5715 5720 5724 5728 5730 5733 5735 5739 5740 5743 5745 5744 5744 5743 5741 5740 5739 5738 5734 5732 5732 5729 5726 5725 5722 5718 5715 5712
5617 5626 5632 5622 5636 5641 5660 5665 5666 5670 5676 5681 5687 5693 5698 5703 5707 5709 5712 5714 5718 5721 5725 5729 5729 5731 5731 5730 5730 5729 5727 5724 5721 5719 5718 5718 5718 5714 5715 5711 5708 5705 5702
5602 5611 5618 5618 5626 5633 5638 5646 5651 5657 5662 5669 5673 5678 5685 5690 5694 5696 5700 5703 5706 5711 5713 5715 5717 5718 5718 5718 5717 5716 5712 5708 5706 5705 5706 5706 5705 5704 5704 5701 5698 5696 5693